О сайте АЭРОКЛУБЫ И АЭРОДРОМЫ:

Добрый день Уважаемые посетители сайта!
Этот ресурс создан с целью предоставить любителям малой авиации максимум полезной информации и возможностей по обмену различными сведениями об аэродромах и интересных маршрутах. Для этого на сайте есть странички Аэродромы - информация из баз АОПА (в том виде как она предоставляется к свободному использованию) и Каталог аэродромов и аэроклубов , с различными вариантами поиска и сортировки, возможностью найти трансфер, арендовать авто или забронировать номер в гостинице on-line, а так же возможностями :
- для аэроклубов - добавить какую либо дополнительную информацию в страничку , посвященную аэроклубу
(чтобы добавить информацию необходимо зарегистрироваться, и подтвердить свою принадлежность к какому либо аэроклубу)
- для посетителей - поделиться каким либо интересным маршрутом, нарисовать его на карте, описать достопримечательности, загрузить фотографии и поставить в соответствие с каким либо клубом или аэродромом.
(чтобы добавить информацию необходимо зарегистрироваться)

Аэроклубы / Аэродромы в Москве

Карта аэродромов в Москве по коду ИКАО

Список аэродромов Москвы

Javascript is required to view this map.

Авиационная погода в Москва - Домодедово

Регион: 
Погода METAR: 
UUDD 280330Z 18004MPS CAVOK 03/01 Q1023 R14R/CLRD60 NOSIG
Время наблюдения
2020-10-28T03:30:00Z
Температура C
3.0
Точка росы
1.0
Направление ветра
180
Скорость ветра (узлы)
8
Метео видимость
6.21
Явления погоды
Условия полета
VFR
Аэропорт подробнее: 

Авиационная погода в Москва - Шереметьево

Регион: 
Погода METAR: 
UUEE 280330Z 17004MPS CAVOK 05/03 Q1022 R24L/CLRD62 R24R/CLRD62 NOSIG
Время наблюдения
2020-10-28T03:30:00Z
Температура C
5.0
Точка росы
3.0
Направление ветра
170
Скорость ветра (узлы)
8
Метео видимость
6.21
Явления погоды
Условия полета
VFR
Аэропорт подробнее: 

Авиационная погода в Москва - Внуково

Регион: 
Погода METAR: 
UUWW 280330Z 17004MPS CAVOK 04/03 Q1023 R24/000070 NOSIG
Время наблюдения
2020-10-28T03:30:00Z
Температура C
4.0
Точка росы
3.0
Направление ветра
170
Скорость ветра (узлы)
8
Метео видимость
6.21
Явления погоды
Условия полета
VFR
Аэропорт подробнее: 

Аэроклубы и аэродромы по регионам Юга России